Tri-Cities, TN

7:41 AM EDT on August 19, 2017 (GMT -0400)
Tri-Cities Regional Tennessee / Virginia

Weather History for KTRI - October, 2012

Change the Weather History Date:

Wednesday, October 31, 2012

  Actual Average Record
Temperature  
Mean Temperature 42 °F 52 °F  
Max Temperature 46 °F 65 °F 80 °F (1974)
Min Temperature 38 °F 39 °F 24 °F (1952)
Degree Days  
Heating Degree Days 23 13  
Month to date heating degree days 298 282  
Since 1 July heating degree days 342 335  
Cooling Degree Days 0 0  
Month to date cooling degree days 10 12  
Year to date cooling degree days 1191 980  
Moisture  
Dew Point 34 °F    
Average Humidity 76    
Maximum Humidity 92    
Minimum Humidity 60    
Precipitation  
Precipitation T in 0.08 in 1.30 in (1961)
Month to date precipitation 2.95 2.10  
Year to date precipitation 41.61 34.54  
Snow  
Snow 0.00 in 0.00 in - ()
Month to date snowfall T 0.1  
Since 1 July snowfall T 0.1  
Since 1 September snowfall T 0.1  
Snow Depth 0.00 in    
Sea Level Pressure  
Sea Level Pressure 29.75 in    
Wind  
Wind Speed 7 mph (WSW)    
Max Wind Speed 22 mph    
Max Gust Speed 25 mph    
Visibility 10 miles    
Events Rain    
T = Trace of Precipitation, MM = Missing Value Source: NWS Daily Summary

Daily Weather History Graph

Daily Weather History Graph

Search for Another Location

Airport or City:

Trip Planner

Search our weather history database for the weather conditions in past years. The results will help you decide how hot, cold, wet, or windy it might be!

Date:

Astronomy

Oct. 31, 2012 Rise Set
Actual Time 7:52 AM EDT 6:33 PM EDT
Civil Twilight 7:25 AM EDT 7:00 PM EDT
Nautical Twilight 6:55 AM EDT 7:30 PM EDT
Astronomical Twilight 6:25 AM EDT 8:00 PM EDT
Moon 7:47 PM EDT (10/31) 9:29 AM EDT (10/31)
Length of Visible Light 11h 34m
Length of Day
10h 41m
Full, 97% of the Moon is Illuminated
Oct 31
Full
Nov 6
Last Quarter
Nov 13
New
Nov 20
First Quarter
Nov 28
Full

Hourly Weather History & Observations

Time (EDT) Temp. Windchill Dew Point Humidity Pressure Visibility Wind Dir Wind Speed Gust Speed Precip Events Conditions
12:53 AM 39.0 °F 31.0 °F 34.0 °F 82% 29.70 in 10.0 mi WSW 13.8 mph - N/A   Overcast
1:53 AM 37.9 °F 28.9 °F 34.0 °F 86% 29.70 in 10.0 mi West 16.1 mph 19.6 mph N/A   Overcast
2:53 AM 37.9 °F 31.5 °F 34.0 °F 86% 29.70 in 10.0 mi WSW 9.2 mph 19.6 mph N/A   Overcast
3:53 AM 39.0 °F 31.8 °F 33.1 °F 79% 29.72 in 10.0 mi WSW 11.5 mph 19.6 mph N/A   Overcast
4:53 AM 39.0 °F 31.4 °F 34.0 °F 82% 29.72 in 10.0 mi SW 12.7 mph - N/A   Overcast
5:35 AM 37.4 °F 30.3 °F 35.6 °F 93% 29.74 in 10.0 mi WSW 10.4 mph - N/A   Overcast
5:53 AM 37.9 °F 32.1 °F 35.1 °F 89% 29.74 in 10.0 mi WSW 8.1 mph - N/A   Overcast
6:00 AM 37.4 °F 29.8 °F 35.6 °F 93% 29.75 in 10.0 mi WSW 11.5 mph - N/A   Overcast
6:53 AM 39.0 °F 31.8 °F 34.0 °F 82% 29.74 in 10.0 mi WSW 11.5 mph - N/A   Overcast
7:00 AM 39.2 °F 31.6 °F 33.8 °F 81% 29.75 in 10.0 mi WSW 12.7 mph - N/A   Overcast
7:23 AM 39.2 °F 32.5 °F 33.8 °F 81% 29.76 in 10.0 mi WSW 10.4 mph - N/A   Overcast
7:53 AM 39.0 °F 32.8 °F 33.1 °F 79% 29.75 in 10.0 mi WSW 9.2 mph - N/A   Overcast
8:53 AM 39.0 °F 32.3 °F 33.1 °F 79% 29.76 in 10.0 mi West 10.4 mph - N/A   Overcast
9:53 AM 39.9 °F 32.9 °F 33.1 °F 77% 29.76 in 10.0 mi WSW 11.5 mph - N/A   Overcast
10:13 AM 39.2 °F 31.6 °F 33.8 °F 81% 29.77 in 10.0 mi West 12.7 mph - N/A   Overcast
10:53 AM 42.1 °F 36.6 °F 33.1 °F 70% 29.76 in 10.0 mi WSW 9.2 mph - N/A   Overcast
11:21 AM 42.8 °F 36.2 °F 32.0 °F 66% 29.77 in 10.0 mi WSW 12.7 mph 24.2 mph N/A   Overcast
11:53 AM 43.0 °F 35.7 °F 32.0 °F 65% 29.76 in 10.0 mi West 15.0 mph - N/A   Overcast
12:53 PM 43.0 °F 36.0 °F 32.0 °F 65% 29.75 in 10.0 mi West 13.8 mph - N/A   Overcast
1:00 PM 42.8 °F 36.6 °F 32.0 °F 66% 29.77 in 10.0 mi West 11.5 mph - N/A   Overcast
1:53 PM 43.0 °F 36.4 °F 32.0 °F 65% 29.75 in 10.0 mi West 12.7 mph - N/A   Overcast
2:53 PM 44.1 °F 40.1 °F 32.0 °F 63% 29.75 in 10.0 mi West 6.9 mph - N/A   Overcast
3:53 PM 45.0 °F - 34.0 °F 65% 29.74 in 10.0 mi Calm Calm - N/A   Overcast
4:53 PM 46.0 °F 44.8 °F 34.0 °F 63% 29.73 in 10.0 mi North 3.5 mph - N/A   Overcast
5:53 PM 45.0 °F - 35.1 °F 68% 29.75 in 10.0 mi Calm Calm - N/A   Overcast
6:53 PM 44.1 °F - 36.0 °F 73% 29.77 in 10.0 mi Calm Calm - N/A   Overcast
7:53 PM 43.0 °F - 36.0 °F 76% 29.78 in 10.0 mi Calm Calm - N/A   Overcast
8:53 PM 43.0 °F - 35.1 °F 74% 29.79 in 10.0 mi Calm Calm - 0.00 in Rain Light Rain
9:53 PM 42.1 °F - 36.0 °F 79% 29.81 in 10.0 mi Calm Calm - 0.00 in   Overcast
10:53 PM 41.0 °F - 37.9 °F 89% 29.82 in 10.0 mi Calm Calm - N/A   Overcast
11:53 PM 42.1 °F - 37.0 °F 82% 29.82 in 10.0 mi Calm Calm - N/A   Overcast